Regional Weather Roundup
Issued by NWS

Home | Current Version | Previous Version | Graphics & Text | Print | Product List | Glossary On
Versions: 1 2 3 4 5 6 7 8 9 10 11 12 13 14 15 16 17 18 19 20 21 22 23 24 25 26 27 28 29 30 31 32 33 34 35 36 37 38 39 40 41 42 43 44 45 46 47 48 49 50
000
ASUS43 KMKX 241611
RWRWI

WISCONSIN REGIONAL WEATHER ROUNDUP
NATIONAL WEATHER SERVICE MILWAUKEE/SULLIVAN WI
1000 AM CST FRI NOV 24 2017

NOTE: "FAIR" INDICATES FEW OR NO CLOUDS BELOW 12,000 FEET WITH NO
SIGNIFICANT WEATHER AND/OR OBSTRUCTIONS TO VISIBILITY.

WIZ001-002-006>008-014>016-023>028-241700-
NORTHWEST WISCONSIN

CITY           SKY/WX    TMP DP  RH WIND       PRES   REMARKS
SUPERIOR ARPT  CLOUDY    43  38  82 SW7       29.27F
ASHLAND        CLOUDY    48  36  63 W7        29.30R
HAYWARD        MOSUNNY   49  37  63 W8        29.34R
SIREN          MOSUNNY   51  38  59 W10       29.32R
CUMBERLAND     SUNNY     46  36  66 W12       29.34R
RICE LAKE      SUNNY     48  37  66 S7        29.34F
CHETEK         SUNNY     50  38  64 SW3       29.32F
LADYSMITH      MOSUNNY   48  37  66 S6        29.36R
EAU CLAIRE     SUNNY     53  37  54 SW13      29.34F
MENOMONIE      SUNNY     55  38  51 S8        29.36R
NEW RICHMOND   CLOUDY    49  37  62 SW9       29.34R
OSCEOLA        CLOUDY    51  39  64 SW7       29.37R
$$

WIZ003>005-009-010-017-018-241700-
NORTH CENTRAL WISCONSIN

CITY           SKY/WX    TMP DP  RH WIND       PRES   REMARKS
MANITOWISH WTR CLOUDY    45  36  70 SW9       29.30S
ARBOR VITAE    CLOUDY    48  37  67 SW8       29.31S
WOODRUFF       CLOUDY    48  37  67 SW8       29.31S
RHINELANDER    CLOUDY    47  36  65 SW14      29.33F
EAGLE RIVER    MOSUNNY   46  33  61 SW6       29.30F
LAND O LAKES   CLOUDY    46  34  63 SW7       29.31F
PHILLIPS       CLOUDY    47  37  67 SW9       29.32R
TOMAHAWK       MOSUNNY   47  35  61 S5        29.33F
MEDFORD        SUNNY     46  35  64 S15       29.35F
MERRILL        MOSUNNY   46  35  63 S10G16    29.38F
$$

WIZ029-030-035-036-043>047-241700-
CENTRAL WISCONSIN

CITY           SKY/WX    TMP DP  RH WIND       PRES   REMARKS
WAUSAU         MOSUNNY   49  35  58 S12       29.37F
MOSINEE        PTSUNNY   48  36  61 S10G16    29.41F
MARSHFIELD     SUNNY     52  35  52 S17       29.37F
STEVENS POINT  SUNNY     51  34  52 SW13G18   29.42F
WAUPACA        CLOUDY    51  34  51 S10G16    29.44F
WAUTOMA        MOSUNNY   53  35  50 S10       29.45F
WISC RAPIDS    CLOUDY    52  35  52 SW16      29.43F
CAMP DOUGLAS   SUNNY     55  36  49 S5G18     29.43F
$$

WIZ011>013-019>022-031-037>040-048>050-241700-
NORTHEAST WISCONSIN

CITY           SKY/WX    TMP DP  RH WIND       PRES   REMARKS
ANTIGO         MOSUNNY   46  35  64 SW12      29.38F
SHAWANO        CLOUDY    51  34  52 S5        29.42F
OCONTO         MOSUNNY   49  33  54 SW13G21   29.41F
STURGEON BAY   MOSUNNY   54  36  50 SW23      29.42F
GREEN BAY      CLOUDY    47  35  63 S14       29.46F
MANITOWOC      NOT AVBL
APPLETON       PTSUNNY   48  30  49 SW16G22   29.46F
CLINTONVILLE   MOSUNNY   50  34  53 SW15      29.42F
OSHKOSH        PTSUNNY   50  35  56 SW18G28   29.46F
$$

WIZ032>034-041-042-053>061-241700-
SOUTHWEST WISCONSIN

CITY           SKY/WX    TMP DP  RH WIND       PRES   REMARKS
LA CROSSE      SUNNY     53  36  52 S10       29.43F
SPARTA         SUNNY     55  37  52 SW5       29.44F
VIROQUA        SUNNY     52  37  57 S16       29.46F
BOSCOBEL       SUNNY     56  35  45 SW7       29.50F
PRAIRIE DU CHI SUNNY     55  34  45 S5        29.48F
PLATTEVILLE    SUNNY     52  38  58 S15       29.53F
$$

WIZ056-057-062-063-064-067-068-241700-
SOUTH CENTRAL WISCONSIN

CITY           SKY/WX    TMP DP  RH WIND       PRES   REMARKS
REEDSBURG      SUNNY     54  36  49 S8G20     29.47F
BARABOO/DELLS  SUNNY     55  33  44 S18       29.47F
LONE ROCK      SUNNY     55  36  48 S10       29.51F
MINERAL POINT  SUNNY     54  36  50 S17G24    29.52F
MADISON        MOSUNNY   51  35  54 S14G23    29.53F
MIDDLETON      SUNNY     56  35  45 SW22      29.52F
WATERTOWN      SUNNY     53  35  51 S18       29.54F
MONROE         SUNNY     50  32  50 S25G35    29.55F
JANESVILLE     MOSUNNY   50  34  53 S16G25    29.59F
$$

WIZ051-052-058>065-066-070>072-241700-
SOUTHEAST WISCONSIN

CITY           SKY/WX    TMP DP  RH WIND       PRES   REMARKS
MILWAUKEE      PTSUNNY   55  35  47 SW18      29.59F
WAUKESHA       SUNNY     54  34  47 S17G23    29.59F
MILWAUKEE/TIMM SUNNY     50  30  46 SW15G24   29.58F
RACINE         SUNNY     54  34  46 SW14G25   29.63F
BURLINGTON     SUNNY     53  39  58 S16G23    29.61F
KENOSHA        SUNNY     53  33  46 SW18G29   29.63F
FOND DU LAC    CLOUDY    52  33  48 S21G31    29.49F
SHEBOYGAN      CLOUDY    57  36  45 SW20G31   29.51F
WEST BEND      MOSUNNY   55  32  41 S16G25    29.53F
JUNEAU         SUNNY     49  34  56 S15G24    29.54F
$$

LSZ147-162-241700-
LAKE SUPERIOR

STATION/POSITION TIME  TEMP    WIND        PRES    WAVE
                       AIR SEA DIR/SP/G            HT/PER
                 (UTC) (F)     (DEG/KT/KT) (MB)    (FT/S)
DEVILS ISLAND    1600   43     240/ 16/ 18  990.5F
SAXON HARBOR     1600   51     210/  8/ 23  990.9
$$

LMZ867-665-643>646-241700-
LAKE MICHIGAN

STATION/POSITION TIME  TEMP    WIND        PRES    WAVE
                       AIR SEA DIR/SP/G            HT/PER
                 (UTC) (F)     (DEG/KT/KT) (MB)    (FT/S)
N MID LAKE BUOY  1550   47 47  200/ 27/ 35  996.4F   9/ 8
NORTHPORT PIER   1600   45     170/  8/ 19  995.9F
KEWAUNEE LAKESHO 1542   42     180/ 15/ 17  997.6F
SHEBOYGAN LAKESH 1600   44     180/ 24/ 26  999.3F
PORT WASHINGTON  1540   50     200/  7/ 11 1002.0F
MILWAUKEE LAKESH 1550   50     200/ 11/ 14   N/A
S MID LAKE BUOY  1550   46 47  200/ 25/ 29 1004.5F   5/ 5
KENOSHA   LAKESH 1600   53     200/ 15/ 23 1003.4
$$

TC  - TEMPERATURE IN CELSIUS
VSB - VISIBILITY IN STATUTE MILES
WCI - WIND CHILL INDEX
HX  - HEAT INDEX





USA.gov is the U.S. government's official web portal to all federal, state and local government web resources and services.